timestamp,wind_dir_avg,wind_spd_avg,wind_spd_max_dir,wind_spd_gust,battery_voltage,lat,long
2019-12-27 00:04:01+00:00,25.0,13.76,33.0,18.43,12.57,47.59359,-54.27349
2019-12-27 00:14:01+00:00,19.0,16.43,15.0,19.49,12.57,47.59359,-54.27349
2019-12-27 00:24:01+00:00,24.0,14.34,18.0,17.61,12.57,47.59359,-54.27349
2019-12-27 00:34:01+00:00,29.0,15.16,35.0,18.43,12.57,47.59359,-54.27349
2019-12-27 00:44:01+00:00,18.0,14.48,21.0,18.29,12.57,47.59359,-54.27349
2019-12-27 00:54:01+00:00,22.0,15.75,17.0,19.05,12.57,47.59359,-54.27349
2019-12-27 01:04:01+00:00,21.0,16.05,17.0,18.65,12.57,47.59359,-54.27349
2019-12-27 01:14:01+00:00,21.0,14.02,18.0,17.67,12.57,47.59359,-54.27349
2019-12-27 01:24:01+00:00,23.0,13.87,14.0,18.7,12.57,47.59359,-54.27349
2019-12-27 01:34:01+00:00,19.0,14.45,18.0,17.75,12.57,47.59359,-54.27349
2019-12-27 01:44:01+00:00,14.0,13.55,17.0,15.43,12.57,47.59359,-54.27349
2019-12-27 01:54:01+00:00,5.0,14.89,0.0,18.41,12.57,47.59359,-54.27349
2019-12-27 02:04:01+00:00,10.0,15.99,12.0,18.95,12.57,47.59359,-54.27349
2019-12-27 02:14:01+00:00,13.0,14.47,10.0,16.89,12.57,47.59359,-54.27349
2019-12-27 02:24:01+00:00,10.0,15.08,8.0,17.85,12.57,47.59359,-54.27349
2019-12-27 02:34:01+00:00,12.0,15.07,6.0,17.16,12.57,47.59359,-54.27349
2019-12-27 02:44:01+00:00,18.0,18.28,16.0,21.21,12.57,47.59359,-54.27349
2019-12-27 02:54:01+00:00,20.0,18.11,16.0,22.29,12.57,47.59359,-54.27349
2019-12-27 03:04:01+00:00,19.0,13.62,19.0,15.96,12.57,47.59359,-54.27349
2019-12-27 03:14:01+00:00,21.0,15.05,19.0,19.8,12.57,47.59359,-54.27349
2019-12-27 03:24:01+00:00,18.0,14.54,17.0,17.7,12.57,47.59359,-54.27349
2019-12-27 03:34:01+00:00,25.0,14.04,25.0,18.12,12.57,47.59359,-54.27349
2019-12-27 03:44:01+00:00,16.0,19.44,19.0,22.34,12.57,47.59359,-54.27349
2019-12-27 03:54:01+00:00,18.0,14.14,19.0,16.24,12.57,47.59359,-54.27349
2019-12-27 04:04:01+00:00,16.0,14.45,22.0,17.6,12.57,47.59359,-54.27349
2019-12-27 04:14:01+00:00,9.0,14.19,13.0,17.3,12.49,47.59359,-54.27349
2019-12-27 04:24:01+00:00,14.0,14.73,19.0,16.72,12.49,47.59359,-54.27349
2019-12-27 04:34:01+00:00,11.0,13.5,16.0,16.07,12.49,47.59359,-54.27349
2019-12-27 04:44:01+00:00,4.0,11.96,12.0,14.31,12.49,47.59359,-54.27349
2019-12-27 04:54:01+00:00,7.0,13.02,7.0,14.61,12.49,47.59359,-54.27349
2019-12-27 05:04:01+00:00,15.0,13.0,16.0,15.82,12.49,47.59359,-54.27349
2019-12-27 05:14:01+00:00,11.0,14.61,6.0,16.49,12.49,47.59359,-54.27349
2019-12-27 05:24:01+00:00,15.0,15.53,13.0,17.65,12.49,47.59359,-54.27349
2019-12-27 05:34:01+00:00,3.0,12.78,354.0,14.74,12.49,47.59359,-54.27349
2019-12-27 05:44:01+00:00,3.0,12.93,359.0,15.88,12.49,47.59359,-54.27349
2019-12-27 05:54:01+00:00,13.0,12.53,18.0,13.88,12.49,47.59359,-54.27349
2019-12-27 06:04:01+00:00,0.0,14.28,2.0,16.13,12.49,47.59359,-54.27349
2019-12-27 06:14:01+00:00,356.0,12.21,357.0,13.65,12.49,47.59359,-54.27349
2019-12-27 06:24:01+00:00,354.0,12.47,353.0,14.45,12.49,47.59359,-54.27349
2019-12-27 06:34:01+00:00,0.0,12.88,359.0,14.79,12.49,47.59359,-54.27349
2019-12-27 06:44:01+00:00,359.0,14.48,357.0,17.23,12.49,47.59359,-54.27349
2019-12-27 06:54:01+00:00,2.0,15.95,12.0,18.8,12.49,47.59359,-54.27349
2019-12-27 07:04:01+00:00,357.0,14.28,351.0,18.34,12.49,47.59359,-54.27349
2019-12-27 07:14:01+00:00,3.0,14.81,7.0,16.33,12.41,47.59359,-54.27349
2019-12-27 07:24:01+00:00,4.0,13.25,4.0,15.23,12.41,47.59359,-54.27349
2019-12-27 07:34:01+00:00,4.0,12.84,359.0,14.33,12.41,47.59359,-54.27349
2019-12-27 07:44:01+00:00,1.0,12.6,6.0,14.35,12.41,47.59359,-54.27349
2019-12-27 07:54:01+00:00,3.0,14.37,3.0,16.19,12.41,47.59359,-54.27349
2019-12-27 08:04:01+00:00,8.0,13.17,7.0,14.82,12.41,47.59359,-54.27349
2019-12-27 08:14:01+00:00,10.0,11.92,9.0,14.52,12.41,47.59359,-54.27349
2019-12-27 08:24:01+00:00,8.0,11.49,6.0,13.67,12.41,47.59359,-54.27349
2019-12-27 08:34:01+00:00,7.0,11.77,10.0,13.57,12.41,47.59359,-54.27349
2019-12-27 08:44:01+00:00,1.0,10.29,0.0,11.59,12.41,47.59359,-54.27349
2019-12-27 08:54:01+00:00,340.0,7.87,340.0,9.68,12.41,47.59359,-54.27349
2019-12-27 09:04:01+00:00,349.0,11.27,349.0,14.13,12.41,47.59359,-54.27349
2019-12-27 09:14:01+00:00,0.0,13.55,358.0,16.36,12.41,47.59359,-54.27349
2019-12-27 09:24:01+00:00,356.0,9.75,348.0,11.68,12.41,47.59359,-54.27349
2019-12-27 09:34:01+00:00,353.0,11.57,356.0,13.51,12.41,47.59359,-54.27349
2019-12-27 09:44:01+00:00,5.0,12.52,4.0,14.72,12.41,47.59359,-54.27349
2019-12-27 09:54:01+00:00,8.0,11.8,8.0,13.73,12.41,47.59359,-54.27349
2019-12-27 10:04:01+00:00,339.0,7.64,336.0,8.79,12.41,47.59359,-54.27349
2019-12-27 10:14:01+00:00,354.0,6.31,354.0,7.97,12.41,47.59359,-54.27349
2019-12-27 10:24:01+00:00,343.0,7.34,342.0,8.33,12.41,47.59359,-54.27349
2019-12-27 10:34:01+00:00,7.0,9.78,5.0,10.93,12.41,47.59359,-54.27349
2019-12-27 10:44:01+00:00,353.0,9.35,353.0,11.0,12.41,47.59359,-54.27349
2019-12-27 10:54:01+00:00,350.0,9.2,350.0,11.53,12.41,47.59359,-54.27349
2019-12-27 11:04:01+00:00,348.0,9.52,355.0,11.79,12.41,47.59359,-54.27349
2019-12-27 11:14:01+00:00,333.0,7.92,333.0,8.79,12.41,47.59359,-54.27349
2019-12-27 11:24:01+00:00,344.0,9.54,343.0,11.2,12.41,47.59359,-54.27349
2019-12-27 11:34:01+00:00,341.0,8.27,340.0,9.37,12.41,47.59359,-54.27349
2019-12-27 11:44:01+00:00,352.0,7.48,357.0,8.53,12.41,47.59359,-54.27349
2019-12-27 11:54:01+00:00,351.0,7.8,356.0,9.49,12.41,47.59359,-54.27349
2019-12-27 12:04:01+00:00,354.0,7.64,350.0,8.57,12.41,47.59359,-54.27349
2019-12-27 15:14:01+00:00,337.0,7.57,336.0,8.64,13.68,47.59359,-54.27349
2019-12-27 15:24:01+00:00,342.0,7.1,332.0,8.3,13.68,47.59359,-54.27349
2019-12-27 15:34:01+00:00,355.0,6.53,2.0,8.28,13.68,47.59359,-54.27349
2019-12-27 15:44:01+00:00,349.0,7.54,347.0,8.65,13.68,47.59359,-54.27349
2019-12-27 15:54:01+00:00,0.0,4.86,15.0,5.88,13.68,47.59359,-54.27349
2019-12-27 16:04:01+00:00,354.0,7.75,355.0,8.92,13.68,47.59359,-54.27349
2019-12-27 16:14:01+00:00,343.0,5.45,346.0,8.11,13.68,47.59359,-54.27349
2019-12-27 16:24:01+00:00,349.0,7.37,353.0,9.04,13.68,47.59359,-54.27349
2019-12-27 16:34:01+00:00,347.0,6.4,342.0,7.37,13.68,47.59359,-54.27349
2019-12-27 16:44:01+00:00,348.0,7.75,352.0,8.89,13.68,47.59359,-54.27349
2019-12-27 16:54:01+00:00,337.0,4.45,348.0,5.88,13.68,47.59359,-54.27349
2019-12-27 17:04:01+00:00,343.0,7.4,338.0,8.62,13.68,47.59359,-54.27349
2019-12-27 17:14:01+00:00,353.0,5.04,346.0,6.62,13.84,47.59359,-54.27349
2019-12-27 17:24:01+00:00,346.0,7.21,338.0,8.72,13.84,47.59359,-54.27349
2019-12-27 17:34:01+00:00,336.0,4.02,334.0,5.07,13.84,47.59359,-54.27349
2019-12-27 17:44:01+00:00,345.0,4.84,349.0,5.7,13.84,47.59359,-54.27349
2019-12-27 17:54:01+00:00,348.0,4.0,343.0,5.09,13.84,47.59359,-54.27349
2019-12-27 18:04:01+00:00,350.0,6.54,345.0,8.44,13.84,47.59359,-54.27349
2019-12-27 18:14:01+00:00,356.0,6.21,0.0,7.53,14.4,47.59359,-54.27349
2019-12-27 18:24:01+00:00,343.0,6.64,347.0,8.17,14.4,47.59359,-54.27349
2019-12-27 18:34:01+00:00,348.0,5.95,346.0,7.27,14.4,47.59359,-54.27349
2019-12-27 18:44:01+00:00,322.0,4.97,323.0,5.9,14.4,47.59359,-54.27349
2019-12-27 18:54:01+00:00,338.0,4.34,335.0,5.32,14.4,47.59359,-54.27349
2019-12-27 19:04:01+00:00,316.0,3.36,330.0,4.49,14.4,47.59359,-54.27349
2019-12-27 19:14:01+00:00,319.0,5.32,322.0,6.48,13.76,47.59359,-54.27349
2019-12-27 19:24:01+00:00,320.0,5.61,320.0,6.52,13.76,47.59359,-54.27349
2019-12-27 19:34:01+00:00,329.0,5.87,329.0,7.3,13.76,47.59359,-54.27349
2019-12-27 19:44:01+00:00,307.0,4.01,306.0,4.99,13.76,47.59359,-54.27349
2019-12-27 19:54:01+00:00,310.0,3.8,309.0,4.35,13.76,47.59359,-54.27349
2019-12-27 20:04:01+00:00,308.0,3.92,309.0,4.49,13.76,47.59359,-54.27349
2019-12-27 20:14:01+00:00,317.0,4.88,319.0,6.66,12.89,47.59359,-54.27349
2019-12-27 20:24:01+00:00,307.0,5.25,306.0,6.68,12.89,47.59359,-54.27349
2019-12-27 20:34:01+00:00,316.0,4.61,317.0,5.47,12.89,47.59359,-54.27349
2019-12-27 20:44:01+00:00,313.0,6.14,313.0,6.91,12.89,47.59359,-54.27349
2019-12-27 20:54:01+00:00,309.0,5.68,311.0,6.63,12.89,47.59359,-54.27349
2019-12-27 21:04:01+00:00,314.0,3.77,316.0,4.42,12.89,47.59359,-54.27349
2019-12-27 21:14:01+00:00,317.0,3.26,329.0,3.87,12.65,47.59359,-54.27349
2019-12-27 21:24:01+00:00,329.0,4.35,328.0,5.26,12.65,47.59359,-54.27349
2019-12-27 21:34:01+00:00,316.0,2.8,318.0,3.43,12.65,47.59359,-54.27349
2019-12-27 21:44:01+00:00,309.0,3.79,305.0,4.9,12.65,47.59359,-54.27349
2019-12-27 21:54:01+00:00,306.0,3.13,304.0,3.72,12.65,47.59359,-54.27349
2019-12-27 22:04:01+00:00,330.0,4.17,325.0,5.18,12.65,47.59359,-54.27349
2019-12-27 22:14:01+00:00,313.0,4.37,316.0,5.08,12.65,47.59359,-54.27349
2019-12-27 22:24:01+00:00,328.0,3.92,327.0,4.84,12.65,47.59359,-54.27349
2019-12-27 22:34:01+00:00,356.0,3.49,357.0,3.97,12.65,47.59359,-54.27349
2019-12-27 22:44:01+00:00,8.0,3.48,15.0,4.4,12.65,47.59359,-54.27349
2019-12-27 22:54:01+00:00,340.0,3.83,339.0,4.4,12.65,47.59359,-54.27349
2019-12-27 23:04:01+00:00,328.0,3.65,332.0,4.7,12.65,47.59359,-54.27349
2019-12-27 23:14:01+00:00,337.0,4.84,336.0,5.58,12.57,47.59359,-54.27349
2019-12-27 23:24:01+00:00,311.0,4.41,310.0,4.96,12.57,47.59359,-54.27349
2019-12-27 23:34:01+00:00,315.0,5.66,319.0,6.38,12.57,47.59359,-54.27349
2019-12-27 23:44:01+00:00,320.0,4.64,324.0,5.75,12.57,47.59359,-54.27349
2019-12-27 23:54:01+00:00,329.0,4.47,330.0,5.21,12.57,47.59359,-54.27349
